Home   Weather   Khanty-Mansiysk   Past weeks

Flag for Russia Past Weather in Khanty-Mansiysk, Russia — Yesterday and Last 2 Weeks

Now
48 °F

Passing clouds.


Feels Like: 43 °F
Forecast: 36 / 48 °F
Wind: 13 mph from Southwest

Location: Hanty-Mansijsk

Current Time: Apr 25, 2017 at 11:37:49 pm

Latest Report: Apr 25, 2017 at 11:00 pm


Visibility: N/A

Pressure: 29.80 "Hg

Humidity: 71%

Dew Point: 39 °F

Location of Khanty-MansiyskLocation

Past Weather in Khanty-Mansiysk — Graph

°F

Khanty-Mansiysk Temperature Yesterday

Maximum temperature yesterday: 50 °F (at 2:30 pm)
Minimum temperature yesterday: 36 °F (at 1:30 am)
Average temperature yesterday: 42 °F

High & Low Weather Summary for the Past Weeks

 TemperatureHumidityPressure
High52 °F (Apr 25, 5:30 pm)100% (Apr 14, 2:30 am)30.24 "Hg (Apr 14, 2:30 am)
Low23 °F (Apr 20, 3:30 am)43% (Apr 23, 1:30 pm)28.97 "Hg (Apr 16, 5:30 pm)
Average36 °F73%29.69 "Hg
* Reported Apr 10 10:00 pm — Apr 25 10:30 pm, Khanty-Mansiysk, Weather by CustomWeather, © 2017

Note: Actual official high and low records may vary slightly from our data, if they occured in-between our weather recording intervals... More about our weather records

Advertising

Khanty-Mansiysk Weather History for the Previous 24 Hours

Scroll right to see more
 ConditionsComfort  
Time TempWeatherWind HumidityBarometerVisibility
10:30 pm
Tue, Apr 25
48 °FPassing clouds.13 mph71%29.80 "HgN/A
10:00 pm48 °FPassing clouds.13 mph76%29.80 "HgN/A
9:30 pm48 °FPassing clouds.6 mph82%29.77 "HgN/A
9:00 pm46 °FPassing clouds.6 mph87%29.74 "HgN/A
8:30 pm48 °FPassing clouds.8 mph82%29.74 "HgN/A
7:30 pm50 °FSunny.8 mph82%29.71 "Hg10 mi
7:00 pm52 °FSunny.13 mph77%29.68 "Hg10 mi
6:30 pm52 °FPassing clouds.3 mph88%29.68 "HgN/A
6:00 pm52 °FScattered clouds.17 mph88%29.65 "HgN/A
5:30 pm52 °FSprinkles. Scattered clouds.6 mph77%29.65 "HgN/A
4:30 pm50 °FSunny.8 mph76%29.62 "Hg10 mi
4:00 pm46 °FScattered clouds.8 mph87%29.65 "HgN/A
3:30 pm45 °FScattered clouds.8 mph87%29.65 "HgN/A
3:00 pm45 °FScattered clouds.13 mph87%29.65 "HgN/A
2:30 pm43 °FScattered clouds.13 mph93%29.65 "HgN/A
2:00 pm43 °FLight rain. Scattered clouds.13 mph93%29.68 "HgN/A
1:00 pm41 °FLight rain. Fog.13 mph93%29.68 "Hg3 mi
12:30 pm41 °FLight rain. Fog.8 mph93%29.71 "Hg3 mi
12:00 pm41 °FLight rain. Scattered clouds.8 mph93%29.74 "Hg6 mi
11:30 am41 °FLight rain. Clear.10 mph93%29.74 "HgN/A
11:00 am41 °FLight rain. Clear.10 mph87%29.77 "HgN/A
10:30 am41 °FLight rain. Scattered clouds.8 mph87%29.77 "HgN/A
10:00 am41 °FLight rain. Partly sunny.13 mph87%29.80 "HgN/A
9:30 am39 °FLight rain. Partly sunny.15 mph93%29.80 "HgN/A
8:30 am39 °FLight rain. Partly sunny.10 mph93%29.86 "HgN/A
7:30 am39 °FLight rain. Scattered clouds.6 mph93%29.89 "HgN/A
6:30 am39 °FLight rain. Passing clouds.6 mph81%29.95 "HgN/A
6:00 am39 °FSunny.3 mph75%29.95 "Hg10 mi
5:30 am39 °FPassing clouds.6 mph70%29.95 "HgN/A
5:00 am39 °FSunny.6 mph70%29.95 "Hg10 mi
4:30 am39 °FClear.6 mph70%29.95 "Hg10 mi
4:00 am39 °FClear.8 mph70%29.95 "Hg10 mi
3:30 am39 °FClear.8 mph70%29.95 "Hg10 mi
3:00 am39 °FClear.8 mph70%29.95 "Hg10 mi
2:30 am39 °FClear.8 mph65%29.95 "Hg10 mi
2:00 am37 °FClear.6 mph70%29.95 "Hg10 mi
1:30 am37 °FClear.3 mph70%29.95 "Hg10 mi
1:00 am39 °FClear.6 mph65%29.95 "Hg10 mi
12:30 am39 °FClear.6 mph65%29.95 "Hg10 mi
12:00 am39 °FPassing clouds.6 mph65%29.98 "HgN/A
11:30 pm
Mon, Apr 24
39 °FPassing clouds.6 mph65%29.98 "HgN/A
11:00 pm39 °FPassing clouds.6 mph65%29.98 "HgN/A
Weather by CustomWeather, © 2017

See weather overviewHow to use our weather pages